EW2960 Weather Reports


Display with metric or nautical units.
time (UTC)temp
F
wind
direction
speed
MPH
gust
MPH
rain 1hr
in
rain 24hr
in
rain mn
in
humidity
%
barometer
mb
20260508024850 41 272 0.0 0.0 0.00 0.00 0.00 79 1009.7
20260508024347 41 272 0.0 0.0 0.00 0.00 0.00 79 1010.1
20260508023843 41 272 0.0 0.0 0.00 0.00 0.00 78 1009.8
20260508023340 41 272 0.0 0.0 0.00 0.00 0.00 78 1009.8
20260508022837 42 272 0.0 0.0 0.00 0.00 0.00 77 1009.9
20260508022333 42 272 0.0 0.0 0.00 0.00 0.00 75 1009.9
20260508021830 42 272 0.0 0.0 0.00 0.00 0.00 74 1009.6
20260508021326 42 272 0.0 0.0 0.00 0.00 0.00 73 1009.8
20260508020822 43 272 0.0 0.0 0.00 0.00 0.00 72 1009.7
20260508020320 43 272 0.0 0.0 0.00 0.00 0.00 70 1009.7
20260508015816 44 272 0.0 0.0 0.00 0.00 0.00 70 1009.7
20260508015314 44 271 0.0 0.0 0.00 0.00 0.00 68 1009.8
20260508014811 44 271 0.0 0.0 0.00 0.00 0.00 67 1009.7
20260508014308 45 272 0.0 0.0 0.00 0.00 0.00 66 1009.6
20260508013803 45 271 0.0 0.0 0.00 0.00 0.00 64 1009.5
20260508013300 46 271 0.0 0.0 0.00 0.00 0.00 63 1009.4
20260508012758 46 271 0.0 0.0 0.00 0.00 0.00 63 1009.6
20260508012255 46 271 0.0 0.0 0.00 0.00 0.00 63 1009.4
20260508011753 46 271 0.0 0.0 0.00 0.00 0.00 60 1009.4
20260508011250 46 271 0.0 0.0 0.00 0.00 0.00 58 1009.3
20260508010747 47 271 0.0 0.0 0.00 0.00 0.00 57 1009.2
20260508010244 47 271 0.0 0.0 0.00 0.00 0.00 57 1009.2
20260508005741 48 271 0.0 0.0 0.00 0.00 0.00 56 1009.2
20260508005238 48 271 0.0 0.0 0.00 0.00 0.00 55 1009.1
20260508004733 49 271 0.0 0.0 0.00 0.00 0.00 56 1009.0
20260508004230 49 271 0.0 0.0 0.00 0.00 0.00 55 1009.1
20260508003727 50 271 0.0 0.0 0.00 0.00 0.00 55 1009.1
20260508003224 50 271 0.0 0.0 0.00 0.00 0.00 53 1008.9
20260508002721 50 296 0.0 0.0 0.00 0.00 0.00 53 1008.7
20260508002218 51 307 0.0 0.0 0.00 0.00 0.00 54 1008.6
20260508001714 51 295 0.0 0.0 0.00 0.00 0.00 52 1008.9
20260508001209 52 290 0.0 0.0 0.00 0.00 0.00 51 1008.7
20260508000706 52 289 0.0 0.0 0.00 0.00 0.00 51 1008.6
20260508000204 52 314 2.0 2.0 0.00 0.00 0.00 51 1008.6
20260507235659 53 308 2.0 2.0 0.00 0.00 0.00 49 1008.5
20260507235157 52 326 0.0 0.0 0.00 0.00 0.00 57 1008.3
20260507234654 52 252 1.0 1.0 0.00 0.00 0.00 57 1008.4
20260507234150 53 274 0.0 0.0 0.00 0.00 0.00 57 1008.5
20260507233647 53 312 0.0 0.0 0.00 0.00 0.00 58 1008.5
20260507233145 53 302 2.0 3.0 0.00 0.00 0.00 58 1008.4
20260507232642 53 310 1.0 2.0 0.00 0.00 0.00 57 1008.4
20260507232139 53 280 0.0 0.0 0.00 0.00 0.00 58 1008.3
20260507231635 53 279 3.0 6.0 0.00 0.00 0.00 56 1008.1
20260507231132 53 309 6.0 7.0 0.00 0.00 0.00 56 1008.3
20260507230629 53 295 6.0 9.0 0.00 0.00 0.00 55 1008.2
20260507230127 54 169 2.0 2.0 0.00 0.00 0.00 58 1008.2
20260507225626 54 270 0.0 1.0 0.00 0.00 0.00 57 1008.2
20260507225123 54 277 3.0 4.0 0.00 0.00 0.00 55 1008.3
20260507224618 55 253 2.0 3.0 0.00 0.00 0.00 56 1008.3
20260507224115 55 300 1.0 1.0 0.00 0.00 0.00 54 1008.2
20260507223611 56 323 7.0 8.0 0.00 0.00 0.00 52 1008.2
20260507223108 56 226 1.0 3.0 0.00 0.00 0.00 55 1008.1
20260507222605 55 273 3.0 4.0 0.00 0.00 0.00 52 1008.2
20260507222102 55 265 2.0 2.0 0.00 0.00 0.00 51 1008.0
20260507221558 56 286 7.0 8.0 0.00 0.00 0.00 49 1007.8
20260507221055 56 310 2.0 2.0 0.00 0.00 0.00 50 1007.8
20260507220552 56 281 3.0 4.0 0.00 0.00 0.00 50 1007.7
20260507220049 56 276 1.0 2.0 0.00 0.00 0.00 49 1007.5
20260507215545 56 273 0.0 0.0 0.00 0.00 0.00 49 1007.5
20260507215044 56 229 3.0 3.0 0.00 0.00 0.00 49 1007.3
20260507214541 57 301 1.0 3.0 0.00 0.00 0.00 49 1007.2
20260507214036 58 320 2.0 3.0 0.00 0.00 0.00 47 1007.0
20260507213533 58 296 1.0 1.0 0.00 0.00 0.00 47 1007.1
20260507213030 57 269 2.0 2.0 0.00 0.00 0.00 48 1007.0
20260507212526 58 206 1.0 2.0 0.00 0.00 0.00 49 1006.8
20260507212023 58 283 2.0 3.0 0.00 0.00 0.00 45 1007.0
20260507211520 57 224 1.0 1.0 0.00 0.00 0.00 50 1006.9
20260507211016 58 323 1.0 1.0 0.00 0.00 0.00 47 1007.0
20260507210513 58 271 2.0 2.0 0.00 0.00 0.00 47 1006.8
20260507210010 59 302 4.0 6.0 0.00 0.00 0.00 45 1007.0
20260507205507 58 279 1.0 1.0 0.00 0.00 0.00 49 1007.1
20260507205003 60 330 1.0 1.0 0.00 0.00 0.00 46 1006.6
20260507204459 58 326 1.0 1.0 0.00 0.00 0.00 48 1006.9
20260507203957 58 293 3.0 3.0 0.00 0.00 0.00 48 1006.7
20260507203455 59 307 2.0 3.0 0.00 0.00 0.00 47 1007.0
20260507202951 57 291 2.0 3.0 0.00 0.00 0.00 46 1006.9
20260507202447 57 288 2.0 3.0 0.00 0.00 0.00 46 1006.8
20260507201943 58 216 2.0 3.0 0.00 0.00 0.00 45 1006.8
20260507201438 58 321 0.0 1.0 0.00 0.00 0.00 46 1006.9
20260507200936 58 281 1.0 1.0 0.00 0.00 0.00 46 1007.0
20260507200431 58 281 6.0 8.0 0.00 0.00 0.00 44 1007.0
20260507195927 58 179 4.0 4.0 0.00 0.00 0.00 45 1006.9
20260507195425 59 294 0.0 1.0 0.00 0.00 0.00 47 1007.2
20260507194922 61 302 0.0 0.0 0.00 0.00 0.00 42 1007.0
20260507194418 60 181 1.0 2.0 0.00 0.00 0.00 42 1007.2
20260507193914 60 283 0.0 1.0 0.00 0.00 0.00 43 1007.3
20260507193406 59 282 1.0 2.0 0.00 0.00 0.00 44 1007.3
20260507192903 59 274 1.0 2.0 0.00 0.00 0.00 46 1007.1
20260507192359 59 169 2.0 2.0 0.00 0.00 0.00 46 1007.1
20260507191856 60 306 1.0 1.0 0.00 0.00 0.00 45 1007.2
20260507191352 61 295 0.0 0.0 0.00 0.00 0.00 41 1007.2
20260507190849 60 271 1.0 1.0 0.00 0.00 0.00 46 1007.3
20260507190347 59 286 5.0 6.0 0.00 0.00 0.00 43 1007.2
20260507185845 59 224 2.0 3.0 0.00 0.00 0.00 44 1007.1
20260507185342 59 218 2.0 2.0 0.00 0.00 0.00 47 1007.1
20260507184839 60 280 0.0 0.0 0.00 0.00 0.00 44 1007.3
20260507184337 59 306 0.0 1.0 0.00 0.00 0.00 46 1007.4
20260507183833 58 329 0.0 0.0 0.00 0.00 0.00 46 1007.4
20260507183331 58 241 1.0 1.0 0.00 0.00 0.00 44 1007.2
20260507182828 59 309 1.0 1.0 0.00 0.00 0.00 46 1007.2
20260507182324 58 265 1.0 1.0 0.00 0.00 0.00 48 1007.3
20260507181820 57 292 0.0 0.0 0.00 0.00 0.00 47 1007.5
20260507181316 57 307 0.0 1.0 0.00 0.00 0.00 47 1007.3
20260507180813 58 315 1.0 2.0 0.00 0.00 0.00 44 1007.2
20260507180310 60 284 3.0 4.0 0.00 0.00 0.00 43 1007.2
20260507175806 59 247 1.0 1.0 0.00 0.00 0.00 46 1007.4
20260507175306 58 138 0.0 0.0 0.00 0.00 0.00 48 1007.3
20260507174800 57 309 1.0 2.0 0.00 0.00 0.00 47 1007.4
20260507174258 57 244 2.0 2.0 0.00 0.00 0.00 44 1007.6
20260507173755 58 71 2.0 4.0 0.00 0.00 0.00 44 1007.6
20260507173252 58 308 0.0 0.0 0.00 0.00 0.00 47 1007.6
20260507172748 58 260 0.0 1.0 0.00 0.00 0.00 50 1007.8
20260507172246 58 270 3.0 6.0 0.00 0.00 0.00 44 1008.1
20260507171741 57 315 2.0 2.0 0.00 0.00 0.00 48 1007.7
20260507171238 58 151 3.0 4.0 0.00 0.00 0.00 48 1007.8
20260507170735 57 266 0.0 0.0 0.00 0.00 0.00 48 1007.8
20260507170232 58 301 8.0 9.0 0.00 0.00 0.00 46 1007.8
20260507165727 58 132 6.0 8.0 0.00 0.00 0.00 46 1008.0
20260507165224 58 308 1.0 2.0 0.00 0.00 0.00 49 1008.1
20260507164720 58 240 1.0 1.0 0.00 0.00 0.00 46 1008.1
20260507164217 58 128 1.0 1.0 0.00 0.00 0.00 51 1007.7
20260507163714 58 250 1.0 2.0 0.00 0.00 0.00 50 1008.2
20260507163212 59 240 0.0 1.0 0.00 0.00 0.00 46 1007.8
20260507162708 57 253 1.0 1.0 0.00 0.00 0.00 49 1008.3
20260507162204 57 313 1.0 1.0 0.00 0.00 0.00 47 1008.1
20260507161700 58 308 0.0 0.0 0.00 0.00 0.00 47 1008.1
20260507161157 58 322 1.0 2.0 0.00 0.00 0.00 47 1008.2
20260507160653 57 292 1.0 2.0 0.00 0.00 0.00 48 1008.2
20260507160150 58 271 2.0 3.0 0.00 0.00 0.00 51 1008.2
20260507155646 60 169 2.0 2.0 0.00 0.00 0.00 47 1008.2
20260507155142 57 300 0.0 1.0 0.00 0.00 0.00 53 1008.3
20260507154639 58 205 2.0 2.0 0.00 0.00 0.00 51 1008.5
20260507154137 58 218 1.0 2.0 0.00 0.00 0.00 49 1008.6
20260507153633 57 310 1.0 1.0 0.00 0.00 0.00 50 1008.5
20260507153130 60 320 1.0 1.0 0.00 0.00 0.00 53 1008.2
20260507152626 59 247 0.0 0.0 0.00 0.00 0.00 47 1008.4
20260507152122 59 318 0.0 1.0 0.00 0.00 0.00 50 1008.5
20260507151618 58 278 1.0 2.0 0.00 0.00 0.00 50 1008.5
20260507151115 57 314 2.0 2.0 0.00 0.00 0.00 48 1008.5
20260507150612 58 260 0.0 1.0 0.00 0.00 0.00 48 1008.6
20260507150109 56 290 0.0 0.0 0.00 0.00 0.00 52 1008.6
20260507145603 59 293 0.0 0.0 0.00 0.00 0.00 54 1008.5
20260507145056 58 334 1.0 1.0 0.00 0.00 0.00 50 1008.6
20260507144552 57 223 1.0 1.0 0.00 0.00 0.00 51 1008.9
20260507144050 57 26 1.0 2.0 0.00 0.00 0.00 53 1008.9
20260507143547 57 177 1.0 2.0 0.00 0.00 0.00 56 1008.6
20260507143044 56 310 0.0 0.0 0.00 0.00 0.00 53 1008.7
20260507142539 57 280 0.0 1.0 0.00 0.00 0.00 57 1009.2
20260507142036 58 300 0.0 1.0 0.00 0.00 0.00 56 1008.9
20260507141532 58 245 1.0 1.0 0.00 0.00 0.00 55 1008.8
20260507141029 57 282 1.0 1.0 0.00 0.00 0.00 53 1009.0
20260507140526 57 269 2.0 2.0 0.00 0.00 0.00 57 1009.1
20260507140024 57 325 0.0 0.0 0.00 0.00 0.00 55 1009.2
20260507135520 57 317 0.0 1.0 0.00 0.00 0.00 62 1009.2
20260507135018 56 277 1.0 1.0 0.00 0.00 0.00 60 1009.3
20260507134514 55 78 1.0 2.0 0.00 0.00 0.00 62 1009.3
20260507134010 55 315 0.0 0.0 0.00 0.00 0.00 62 1009.3
20260507133506 56 34 1.0 1.0 0.00 0.00 0.00 61 1009.3
20260507133005 56 327 0.0 1.0 0.00 0.00 0.00 62 1009.5
20260507132501 55 185 2.0 2.0 0.00 0.00 0.00 62 1009.7
20260507131956 55 290 0.0 0.0 0.00 0.00 0.00 65 1009.6
20260507131454 55 279 0.0 0.0 0.00 0.00 0.00 64 1009.4
20260507130951 54 322 2.0 2.0 0.00 0.00 0.00 65 1009.3
20260507130448 55 318 0.0 0.0 0.00 0.00 0.00 62 1009.5
20260507125946 54 284 0.0 0.0 0.00 0.00 0.00 64 1009.6
20260507125444 54 156 1.0 2.0 0.00 0.00 0.00 64 1009.5
20260507124941 53 315 0.0 1.0 0.00 0.00 0.00 68 1009.6
20260507124437 53 114 2.0 2.0 0.00 0.00 0.00 67 1009.6
20260507123936 51 252 0.0 0.0 0.00 0.00 0.00 72 1009.4
20260507123433 51 283 0.0 1.0 0.00 0.00 0.00 74 1009.5
20260507122929 50 38 0.0 0.0 0.00 0.00 0.00 78 1009.3
20260507122424 49 39 1.0 1.0 0.00 0.00 0.00 81 1009.3
20260507121921 48 56 1.0 1.0 0.00 0.00 0.00 81 1009.7
20260507121416 46 35 0.0 0.0 0.00 0.00 0.00 87 1009.6
20260507120913 44 30 0.0 0.0 0.00 0.00 0.00 93 1009.5
20260507120410 43 30 0.0 0.0 0.00 0.00 0.00 96 1009.5
20260507115906 43 30 0.0 0.0 0.00 0.00 0.00 98 1009.7
20260507115402 42 30 0.0 0.0 0.00 0.00 0.00 99 1009.7
20260507114857 41 30 0.0 0.0 0.00 0.00 0.00 99 1009.6
20260507114355 40 29 0.0 0.0 0.00 0.00 0.00 99 1009.6
20260507113852 39 30 0.0 0.0 0.00 0.00 0.00 99 1009.6
20260507113349 38 22 0.0 0.0 0.00 0.00 0.00 99 1009.8
20260507112846 38 355 0.0 0.0 0.00 0.00 0.00 99 1009.8
20260507112343 37 346 0.0 0.0 0.00 0.00 0.00 99 1009.6
20260507111841 37 346 0.0 0.0 0.00 0.00 0.00 99 1009.6
20260507111338 37 346 0.0 0.0 0.00 0.00 0.00 99 1009.5
20260507110834 37 346 0.0 0.0 0.00 0.00 0.00 99 1009.4
20260507110330 37 346 0.0 0.0 0.00 0.00 0.00 99 1009.4
20260507105827 36 346 0.0 0.0 0.00 0.00 0.00 99 1009.4
20260507105324 36 346 0.0 0.0 0.00 0.00 0.00 99 1009.3
20260507104821 36 346 0.0 0.0 0.00 0.00 0.00 99 1009.1
20260507104317 36 346 0.0 0.0 0.00 0.00 0.00 99 1009.3
20260507103813 36 346 0.0 0.0 0.00 0.00 0.00 99 1009.5
20260507103310 36 346 0.0 0.0 0.00 0.00 0.00 99 1009.2
20260507102806 36 346 0.0 0.0 0.00 0.00 0.00 99 1009.5
20260507102306 36 346 0.0 0.0 0.00 0.00 0.00 99 1009.3
20260507101759 36 346 0.0 0.0 0.00 0.00 0.00 99 1009.1
20260507101259 36 327 0.0 0.0 0.00 0.00 0.00 99 1009.3
20260507100756 35 325 0.0 0.0 0.00 0.00 0.00 99 1009.1
20260507100255 35 325 0.0 0.0 0.00 0.00 0.00 99 1009.3
20260507095752 35 325 0.0 0.0 0.00 0.00 0.00 99 1009.2
20260507095249 35 325 0.0 0.0 0.00 0.00 0.00 99 1009.3
20260507094746 35 325 0.0 0.0 0.00 0.00 0.00 99 1009.4
20260507094243 35 325 0.0 0.0 0.00 0.00 0.00 99 1009.5
20260507093739 35 325 0.0 0.0 0.00 0.00 0.00 99 1009.3
20260507093238 35 325 0.0 0.0 0.00 0.00 0.00 99 1009.3
20260507092735 35 325 0.0 0.0 0.00 0.00 0.00 99 1009.3
20260507092231 35 325 0.0 0.0 0.00 0.00 0.00 99 1009.5
20260507091728 35 325 0.0 0.0 0.00 0.00 0.00 99 1009.2
20260507091224 35 325 0.0 0.0 0.00 0.00 0.00 99 1009.4
20260507090720 36 326 0.0 0.0 0.00 0.00 0.00 99 1009.3
20260507090217 36 325 0.0 0.0 0.00 0.00 0.00 99 1009.5
20260507085714 36 325 0.0 0.0 0.00 0.00 0.00 99 1009.2
20260507085211 36 325 0.0 0.0 0.00 0.00 0.00 99 1009.5
20260507084708 36 325 0.0 0.0 0.00 0.00 0.00 99 1009.5
20260507084204 36 325 0.0 0.0 0.00 0.00 0.00 99 1009.6
20260507083702 36 325 0.0 0.0 0.00 0.00 0.00 99 1009.5
20260507083158 36 325 0.0 0.0 0.00 0.00 0.00 99 1009.7
20260507082654 36 325 0.0 0.0 0.00 0.00 0.00 99 1009.5
20260507082150 36 325 0.0 0.0 0.00 0.00 0.00 99 1009.5
20260507081647 36 325 0.0 0.0 0.00 0.00 0.00 99 1009.6
20260507081143 36 325 0.0 0.0 0.00 0.00 0.00 99 1009.8
20260507080640 36 325 0.0 0.0 0.00 0.00 0.00 99 1009.7
20260507080136 36 325 0.0 0.0 0.00 0.00 0.00 99 1009.6
20260507075631 37 325 0.0 0.0 0.00 0.00 0.00 98 1009.6
20260507075128 36 325 0.0 0.0 0.00 0.00 0.00 98 1009.6
20260507074625 37 325 0.0 0.0 0.00 0.00 0.00 98 1009.8
20260507074123 37 325 0.0 0.0 0.00 0.00 0.00 98 1009.7
20260507073619 37 325 0.0 0.0 0.00 0.00 0.00 98 1009.8
20260507073115 37 325 0.0 0.0 0.00 0.00 0.00 98 1009.5
20260507072613 37 325 0.0 0.0 0.00 0.00 0.00 98 1009.8
20260507072110 37 325 0.0 0.0 0.00 0.00 0.00 97 1009.7
20260507071607 37 325 0.0 0.0 0.00 0.00 0.00 97 1009.8
20260507071104 37 325 0.0 0.0 0.00 0.00 0.00 97 1009.6
20260507070601 37 325 0.0 0.0 0.00 0.00 0.00 97 1009.7
20260507070058 37 325 0.0 0.0 0.00 0.00 0.00 97 1009.9
20260507065554 37 325 0.0 0.0 0.00 0.00 0.00 96 1009.7
20260507065051 38 325 0.0 0.0 0.00 0.00 0.00 96 1009.8
20260507064549 38 325 0.0 0.0 0.00 0.00 0.00 96 1009.8
20260507064048 38 325 0.0 0.0 0.00 0.00 0.00 96 1010.1
20260507063544 38 325 0.0 0.0 0.00 0.00 0.00 95 1009.8
20260507063042 38 325 0.0 0.0 0.00 0.00 0.00 95 1010.0
20260507062538 39 325 0.0 0.0 0.00 0.00 0.00 95 1009.9
20260507062036 39 325 0.0 0.0 0.00 0.00 0.00 94 1009.9
20260507061533 39 325 0.0 0.0 0.00 0.00 0.00 94 1010.0
20260507061031 40 325 0.0 0.0 0.00 0.00 0.00 93 1010.0
20260507060529 40 325 0.0 0.0 0.00 0.00 0.00 93 1010.2
20260507060025 40 325 0.0 0.0 0.00 0.00 0.00 92 1010.0
20260507055520 40 325 0.0 0.0 0.00 0.00 0.00 92 1010.1
20260507055016 40 325 0.0 0.0 0.00 0.00 0.00 90 1010.2
20260507054513 41 325 0.0 0.0 0.00 0.00 0.00 90 1010.1
20260507054010 41 325 0.0 0.0 0.00 0.00 0.00 90 1010.2
20260507053508 41 325 0.0 0.0 0.00 0.00 0.00 89 1010.2
20260507053006 42 325 0.0 0.0 0.00 0.00 0.00 88 1010.3
20260507052504 42 325 0.0 0.0 0.00 0.00 0.00 87 1010.4
20260507052000 42 325 0.0 0.0 0.00 0.00 0.00 86 1010.2
20260507051458 43 325 0.0 0.0 0.00 0.00 0.00 85 1010.2
20260507050954 43 325 0.0 0.0 0.00 0.00 0.00 84 1010.1
20260507050450 44 325 0.0 0.0 0.00 0.00 0.00 83 1010.1
20260507045948 44 325 0.0 0.0 0.00 0.00 0.00 82 1010.1
20260507045444 44 325 0.0 0.0 0.00 0.00 0.00 80 1010.3
20260507044942 44 325 0.0 0.0 0.00 0.00 0.00 79 1010.2
20260507044438 45 325 0.0 0.0 0.00 0.00 0.00 78 1010.4
20260507043934 45 325 0.0 0.0 0.00 0.00 0.00 77 1010.6
20260507043430 45 325 0.0 0.0 0.00 0.00 0.00 75 1010.4
20260507042927 45 325 0.0 0.0 0.00 0.00 0.00 75 1010.6
20260507042424 45 325 0.0 0.0 0.00 0.00 0.00 74 1010.4
20260507041919 46 325 0.0 0.0 0.00 0.00 0.00 74 1010.6
20260507041416 46 325 0.0 0.0 0.00 0.00 0.00 75 1010.4
20260507040914 46 325 0.0 0.0 0.00 0.00 0.00 74 1010.8
20260507040409 46 325 0.0 0.0 0.00 0.00 0.00 74 1010.7
20260507035905 46 325 0.0 0.0 0.00 0.62 0.62 74 1010.8
20260507035402 46 325 0.0 0.0 0.00 0.62 0.62 73 1010.9
20260507034859 46 325 0.0 0.0 0.00 0.62 0.62 73 1010.8
20260507034355 46 325 0.0 0.0 0.00 0.62 0.62 73 1010.5
20260507033854 46 325 1.0 1.0 0.00 0.62 0.62 73 1010.6
20260507033351 46 318 0.0 0.0 0.00 0.62 0.62 73 1010.6
20260507032848 46 317 0.0 0.0 0.00 0.62 0.62 75 1010.5
20260507032345 46 317 0.0 0.0 0.00 0.62 0.62 74 1010.7
20260507031841 46 302 0.0 0.0 0.00 0.62 0.62 73 1010.4
20260507031338 47 302 1.0 2.0 0.00 0.62 0.62 72 1010.4
20260507030834 47 295 0.0 1.0 0.00 0.62 0.62 73 1010.5
20260507030332 47 322 1.0 1.0 0.00 0.62 0.62 73 1010.4
20260507025828 47 296 1.0 1.0 0.00 0.62 0.62 72 1010.5
20260507025326 47 338 1.0 1.0 0.00 0.62 0.62 72 1010.5